STARLINK-30517

operational
NORAD ID: 57995 Int'l Des: 2023-153 Owner: SPXS Country: US Constellation: starlink
LEOCIRCULAR

About STARLINK-30517

Description loading...

Live Position

Loading 3D Globe...

Upcoming Passes

Altitude History

Altitude vs Time

uPlot chart will show altitude changes over time

Two-Line Element Set

1 57995U 23153E 25251.53392886 -.00001587 00000-0 -10250-3 0 9992
2 57995 43.0043 338.6851 0001418 276.2809 83.7871 15.02521258107477
Epoch: Sep 8, 2025 • Age: 14 hours

Current Status

Altitude 571.3 km
Velocity 7.58 km/s
Sub-Earth Point -42.63°S, 134.01°W
Launch Date Oct 5, 2023
Age 1.9 years
Type internet

Technical Details

Classification Payload
Mass 730.00 kg
Dry Mass 700.00 kg
Total Mass 730.00 kg
Length 0.30 m
Diameter 4.10 m
Span 29.00 m
Shape Box + pan
Manufacturer SPXS
Bus Type Starlink V2M
Phase Status In Orbit
Owner/State SPXS/US

Large Constellations

Loading constellations...